This is the latest recevied weather packets stored in our database for station/object W0AKY-13. If no packets are shown the sender has not sent any weather packets the latest 10 day(s).
| Time | Temp. | Humidity | Pressure | Rain* | Wind** | Luminosity | Snow |
|---|---|---|---|---|---|---|---|
| 1777782384 | 11.67° C | 52% | 1015.4 hPa | 0 mm | - | 0 W/m² | - |
| 1777782080 | 11.67° C | 52% | 1015.6 hPa | 0 mm | - | 0 W/m² | - |
| 1777781777 | 11.67° C | 52% | 1015.5 hPa | 0 mm | - | 0 W/m² | - |
| 1777781475 | 11.67° C | 53% | 1015.4 hPa | 0 mm | - | 0 W/m² | - |
| 1777781172 | 11.67° C | 52% | 1015.7 hPa | 0 mm | - | 0 W/m² | - |
| 1777780869 | 11.67° C | 53% | 1015.5 hPa | 0 mm | - | 0 W/m² | - |
| 1777780566 | 11.67° C | 51% | 1015.8 hPa | 0 mm | - | 0 W/m² | - |
| 1777780264 | 11.67° C | 52% | 1015.8 hPa | 0 mm | - | 0 W/m² | - |
| 1777779960 | 11.67° C | 53% | 1015.9 hPa | 0 mm | - | 0 W/m² | - |
| 1777779658 | 11.67° C | 51% | 1016.1 hPa | 0 mm | - | 0 W/m² | - |
| 1777779355 | 11.67° C | 52% | 1016.1 hPa | 0 mm | - | 0 W/m² | - |
| 1777779053 | 11.67° C | 52% | 1016 hPa | 0 mm | - | 0 W/m² | - |
| 1777778751 | 12.22° C | 51% | 1016.4 hPa | 0 mm | - | 0 W/m² | - |
| 1777778448 | 12.22° C | 52% | 1016.4 hPa | 0 mm | - | 0 W/m² | - |
| 1777778146 | 12.22° C | 51% | 1016.2 hPa | 0 mm | - | 0 W/m² | - |
| 1777777843 | 12.22° C | 49% | 1016.4 hPa | 0 mm | - | 0 W/m² | - |
| 1777777539 | 12.78° C | 47% | 1016.5 hPa | 0 mm | - | 0 W/m² | - |
| 1777777236 | 12.78° C | 50% | 1016.6 hPa | 0 mm | - | 0 W/m² | - |
| 1777776933 | 12.22° C | 49% | 1016.7 hPa | 0 mm | - | 0 W/m² | - |
| 1777776631 | 12.22° C | 50% | 1016.7 hPa | 0 mm | - | 0 W/m² | - |
| 1777776326 | 12.22° C | 50% | 1016.6 hPa | 0 mm | - | 0 W/m² | - |
| 1777776024 | 12.22° C | 49% | 1016.7 hPa | 0 mm | - | 0 W/m² | - |
| 1777775721 | 11.67° C | 53% | 1016.9 hPa | 0 mm | - | 0 W/m² | - |
| 1777775418 | 11.67° C | 56% | 1016.9 hPa | 0 mm | - | 0 W/m² | - |
| 1777775114 | 11.67° C | 56% | 1017 hPa | 0 mm | - | 0 W/m² | - |
* Rain latest hour (hover to see other rain measurements)
** Current wind speed in m/s (hover to see current wind gust speed)